User: anonymous
Location: Albany
(35.0000°S, 118.0000°E)
Time: 18:49:17
(UTC-04:00)
Language:

TRMM - Orbit

View from above orbital plane
View from above orbital plane
View from above satellite
View from above satellite

Ground track
Ground track

The orbit data is extracted from the following two-line orbital elements,

1 25063U 97074A   14293.49981986  .00046551  00000-0  54178-3 0  7814
2 25063 034.9557 029.5534 0001956 105.0383 319.1154 15.60591233964244
Epoch (UTC): 20 October 2014 11:59:44
Eccentricity: 0.0001956
inclination: 34.9557°
perigee height: 384 km
apogee height: 387 km
right ascension of ascending node: 29.5534°
argument of perigee: 105.0383°
revolutions per day: 15.60591233
mean anomaly at epoch: 319.1154°
orbit number at epoch: 96424

The dashed part of the orbit path shows where the satellite is in the earth's shadow,  

DLR